HVDC transfer

From www.emi.ea.govt.nz provided by the Electricity Authority (New Zealand)
Run at: 20240503213613

Parameters
Date range,09 Jul 2020 - 09 Jul 2020
Time scale,Trading period
Show,Average flow (MW)

Period start,Period end,Trading period,Direction,Energy transfer (GWh),Peak flow (MW),Average flow (MW)
09/07/2020 00:00:00,09/07/2020 00:30:00,1,Southward at Benmore,-0.047,-95,-95
09/07/2020 00:30:00,09/07/2020 01:00:00,2,Southward at Benmore,-0.054,-108,-108
09/07/2020 01:00:00,09/07/2020 01:30:00,3,Southward at Benmore,-0.037,-74,-74
09/07/2020 01:30:00,09/07/2020 02:00:00,4,Southward at Benmore,-0.066,-133,-133
09/07/2020 02:00:00,09/07/2020 02:30:00,5,Southward at Benmore,-0.040,-81,-81
09/07/2020 02:30:00,09/07/2020 03:00:00,6,Southward at Benmore,-0.023,-47,-47
09/07/2020 03:00:00,09/07/2020 03:30:00,7,Southward at Benmore,-0.034,-68,-68
09/07/2020 03:30:00,09/07/2020 04:00:00,8,Southward at Benmore,-0.030,-60,-60
09/07/2020 04:00:00,09/07/2020 04:30:00,9,Southward at Benmore,-0.016,-32,-32
09/07/2020 04:30:00,09/07/2020 05:00:00,10,Southward at Benmore,-0.013,-27,-27
09/07/2020 05:00:00,09/07/2020 05:30:00,11,Northward at Haywards,0.031,61,61
09/07/2020 05:30:00,09/07/2020 06:00:00,12,Northward at Haywards,0.033,65,65
09/07/2020 06:00:00,09/07/2020 06:30:00,13,Northward at Haywards,0.064,127,127
09/07/2020 06:30:00,09/07/2020 07:00:00,14,Northward at Haywards,0.118,235,235
09/07/2020 07:00:00,09/07/2020 07:30:00,15,Northward at Haywards,0.226,451,451
09/07/2020 07:30:00,09/07/2020 08:00:00,16,Northward at Haywards,0.248,496,496
09/07/2020 08:00:00,09/07/2020 08:30:00,17,Northward at Haywards,0.270,540,540
09/07/2020 08:30:00,09/07/2020 09:00:00,18,Northward at Haywards,0.278,555,555
09/07/2020 09:00:00,09/07/2020 09:30:00,19,Northward at Haywards,0.278,556,556
09/07/2020 09:30:00,09/07/2020 10:00:00,20,Northward at Haywards,0.267,533,533
09/07/2020 10:00:00,09/07/2020 10:30:00,21,Northward at Haywards,0.253,506,506
09/07/2020 10:30:00,09/07/2020 11:00:00,22,Northward at Haywards,0.255,510,510
09/07/2020 11:00:00,09/07/2020 11:30:00,23,Northward at Haywards,0.241,482,482
09/07/2020 11:30:00,09/07/2020 12:00:00,24,Northward at Haywards,0.228,455,455
09/07/2020 12:00:00,09/07/2020 12:30:00,25,Northward at Haywards,0.230,460,460
09/07/2020 12:30:00,09/07/2020 13:00:00,26,Northward at Haywards,0.230,459,459
09/07/2020 13:00:00,09/07/2020 13:30:00,27,Northward at Haywards,0.187,374,374
09/07/2020 13:30:00,09/07/2020 14:00:00,28,Northward at Haywards,0.155,310,310
09/07/2020 14:00:00,09/07/2020 14:30:00,29,Northward at Haywards,0.172,343,343
09/07/2020 14:30:00,09/07/2020 15:00:00,30,Northward at Haywards,0.192,384,384
09/07/2020 15:00:00,09/07/2020 15:30:00,31,Northward at Haywards,0.174,348,348
09/07/2020 15:30:00,09/07/2020 16:00:00,32,Northward at Haywards,0.170,339,339
09/07/2020 16:00:00,09/07/2020 16:30:00,33,Northward at Haywards,0.180,359,359
09/07/2020 16:30:00,09/07/2020 17:00:00,34,Northward at Haywards,0.174,347,347
09/07/2020 17:00:00,09/07/2020 17:30:00,35,Northward at Haywards,0.207,414,414
09/07/2020 17:30:00,09/07/2020 18:00:00,36,Northward at Haywards,0.282,563,563
09/07/2020 18:00:00,09/07/2020 18:30:00,37,Northward at Haywards,0.262,523,523
09/07/2020 18:30:00,09/07/2020 19:00:00,38,Northward at Haywards,0.257,514,514
09/07/2020 19:00:00,09/07/2020 19:30:00,39,Northward at Haywards,0.244,487,487
09/07/2020 19:30:00,09/07/2020 20:00:00,40,Northward at Haywards,0.239,478,478
09/07/2020 20:00:00,09/07/2020 20:30:00,41,Northward at Haywards,0.249,497,497
09/07/2020 20:30:00,09/07/2020 21:00:00,42,Northward at Haywards,0.211,421,421
09/07/2020 21:00:00,09/07/2020 21:30:00,43,Northward at Haywards,0.233,466,466
09/07/2020 21:30:00,09/07/2020 22:00:00,44,Northward at Haywards,0.223,446,446
09/07/2020 22:00:00,09/07/2020 22:30:00,45,Northward at Haywards,0.138,276,276
09/07/2020 22:30:00,09/07/2020 23:00:00,46,Northward at Haywards,0.135,269,269
09/07/2020 23:00:00,09/07/2020 23:30:00,47,Northward at Haywards,0.107,214,214
09/07/2020 23:30:00,10/07/2020 00:00:00,48,Northward at Haywards,0.089,177,177
